Location: Arcueil
(48.7999°N, 2.3326°E)
Time: 18:45:37
(UTC+00:00)

S3M - Pass Details

Date: 03 February 2023
Orbit: 948 x 1005 km, 83.0° (Epoch: 26 March)

Event Time Altitude Azimuth Distance (km) Brightness Sun altitude
Rises 18:28:29 0° 165° (SSE) 3,718 7.0 -16.2°
Reaches altitude 10° 18:31:07 10° 159° (SSE) 2,774 6.2 -16.6°
Maximum altitude 18:37:06 44° 89° (E) 1,361 4.3 -17.6°
Drops below altitude 10° 18:43:05 10° 20° (NNE) 2,781 6.1 -18.6°
Sets 18:45:43 0° 14° (NNE) 3,729 6.9 -19.0°
